Deming, NM

5:56 AM MST on January 16, 2017 (GMT -0700)
Deming Municipal

Weather History for KDMN - January, 2013

Change the Weather History Date:

Tuesday, January 15, 2013

  Actual Average Record
Temperature  
Mean Temperature 22 °F -  
Max Temperature 38 °F 57 °F 70 °F (2003)
Min Temperature 6 °F 27 °F 4 °F (1962)
Degree Days  
Heating Degree Days 42    
Moisture  
Dew Point -3 °F    
Average Humidity 40    
Maximum Humidity 63    
Minimum Humidity 17    
Precipitation  
Precipitation 0.00 in 0.02 in 1.19 in (2017)
Month to date precipitation 0.01 0.27  
Year to date precipitation 0.01 0.27  
Sea Level Pressure  
Sea Level Pressure 30.26 in    
Wind  
Wind Speed 4 mph (WNW)    
Max Wind Speed 10 mph    
Max Gust Speed 16 mph    
Visibility 10 miles    
Events      
T = Trace of Precipitation, MM = Missing Value Source: NWS Daily Summary

Daily Weather History Graph

Daily Weather History Graph

Search for Another Location

Airport or City:

Trip Planner

Search our weather history database for the weather conditions in past years. The results will help you decide how hot, cold, wet, or windy it might be!

Date:

Astronomy

Jan. 15, 2013 Rise Set
Actual Time 7:12 AM MST 5:28 PM MST
Civil Twilight 6:45 AM MST 5:55 PM MST
Nautical Twilight 6:15 AM MST 6:25 PM MST
Astronomical Twilight 5:46 AM MST 6:55 PM MST
Moon 9:37 AM MST (1/15) 10:01 PM MST (1/15)
Length of Visible Light 11h 09m
Length of Day
10h 16m
Waxing Crescent, 20% of the Moon is Illuminated
Jan 15
Waxing Crescent
Jan 18
First Quarter
Jan 26
Full
Feb 3
Last Quarter
Feb 10
New

Hourly Weather History & Observations

Time (MST) Temp. Windchill Dew Point Humidity Pressure Visibility Wind Dir Wind Speed Gust Speed Precip Events Conditions
12:53 AM 15.1 °F - -4.0 °F 43% 30.09 in 10.0 mi Calm Calm - N/A   Clear
1:53 AM 14.0 °F 8.2 °F -4.0 °F 45% 30.11 in 10.0 mi WNW 3.5 mph - N/A   Clear
2:53 AM 9.0 °F - -6.0 °F 51% 30.14 in 10.0 mi Calm Calm - N/A   Mostly Cloudy
4:53 AM 12.0 °F 0.5 °F -2.0 °F 53% 30.18 in 10.0 mi NW 8.1 mph - N/A   Overcast
5:53 AM 15.1 °F 6.4 °F 1.0 °F 54% 30.20 in 10.0 mi WNW 5.8 mph - N/A   Scattered Clouds
6:53 AM 9.0 °F - -2.9 °F 59% 30.25 in 10.0 mi Calm Calm - N/A   Clear
7:53 AM 10.9 °F 2.9 °F -2.0 °F 56% 30.28 in 10.0 mi WNW 4.6 mph - N/A   Clear
8:53 AM 21.0 °F 16.2 °F 1.0 °F 42% 30.29 in 10.0 mi West 3.5 mph - N/A   Clear
9:53 AM 27.0 °F 23.0 °F 1.9 °F 34% 30.26 in 10.0 mi SSW 3.5 mph - N/A   Clear
10:53 AM 30.0 °F 26.5 °F 1.0 °F 29% 30.27 in 10.0 mi WNW 3.5 mph - N/A   Clear
11:53 AM 30.9 °F 27.5 °F 1.0 °F 28% 30.25 in 10.0 mi WSW 3.5 mph - N/A   Clear
12:53 PM 33.1 °F - -0.0 °F 24% 30.22 in 10.0 mi Calm Calm - N/A   Clear
1:53 PM 34.0 °F - -2.0 °F 22% 30.22 in 10.0 mi Calm Calm - N/A   Clear
2:53 PM 37.0 °F 33.3 °F -4.0 °F 17% 30.23 in 10.0 mi Variable 4.6 mph - N/A   Clear
3:53 PM 37.0 °F 32.4 °F -4.0 °F 17% 30.25 in 10.0 mi West 5.8 mph - N/A   Clear
4:53 PM 36.0 °F 31.1 °F -2.9 °F 19% 30.27 in 10.0 mi SW 5.8 mph - N/A   Clear
5:53 PM 30.9 °F 26.2 °F -4.0 °F 22% 30.30 in 10.0 mi South 4.6 mph - N/A   Clear
6:53 PM 25.0 °F 16.3 °F -5.1 °F 27% 30.36 in 10.0 mi ENE 8.1 mph - N/A   Clear
7:53 PM 25.0 °F 16.3 °F -6.0 °F 26% 30.38 in 10.0 mi East 8.1 mph - N/A   Clear
8:53 PM 26.1 °F 20.5 °F -6.0 °F 25% 30.35 in 10.0 mi East 4.6 mph - N/A   Clear
9:53 PM 19.9 °F 13.4 °F -7.1 °F 30% 30.36 in 10.0 mi East 4.6 mph - N/A   Clear
10:53 PM 19.9 °F 13.4 °F -5.1 °F 33% 30.37 in 10.0 mi North 4.6 mph - N/A   Clear
11:53 PM 15.1 °F 9.4 °F -8.0 °F 36% 30.40 in 10.0 mi North 3.5 mph - N/A   Clear